Dewpoint
55 55 56 55 54 54 55 55 55 55 55 55 55 56 55 55 55 55 56 55 55 55 55 56 56 56 56 57 57 58 58 53 47 46 46 38 44 72 71 68 65 67 65 48 53 51 45 52 58 59 56 54 55 54 57 59 59 61 59 57 58 56 57 60 59 59 62 62 64 65 65 64 63 66 67 68 67 65 64 65 61 58 57 59 59 60 60 59
55 55 55 54 54 55 55 55 55 55 55 55 55 55 55 56 55 55 55 56 55 55 55 55 56 56 56 56 57 58 56 51 47 44 41 50 63 61 69 68 65 66 59 47 47 51 48 53 57 56 53 53 55 52 56 56 58 58 61 59 58 58 62 62 61 63 62 61 65 65 65 64 64 66 67 65 64 64 63 63 62 59 57 59 59 59 59 59
55 55 55 54 54 55 55 55 55 55 55 54 55 55 55 56 56 55 56 56 56 55 55 55 55 56 56 56 57 58 56 51 48 45 42 59 62 67 67 66 63 65 43 43 45 52 52 55 54 53 52 52 54 49 53 54 57 59 58 59 58 57 60 61 62 63 64 64 64 64 65 65 66 66 67 63 62 63 63 61 60 57 57 58 58 59 59 59
55 55 55 54 54 55 55 55 55 55 54 55 55 55 55 55 55 55 55 55 55 55 55 55 56 56 56 57 57 56 53 49 44 32 40 64 64 66 67 69 65 59 43 40 43 53 55 54 50 50 49 49 52 50 53 56 56 65 58 57 55 58 60 61 64 63 64 65 65 65 65 65 66 66 66 64 62 63 65 62 60 57 58 58 58 58 59 59
55 55 54 55 54 55 55 55 55 55 54 54 55 55 55 55 55 55 55 55 55 56 55 56 56 56 56 57 58 55 51 39 40 43 52 67 64 64 66 71 68 35 40 40 42 51 55 52 48 47 46 47 47 51 50 55 57 61 59 60 56 58 57 62 61 64 64 65 66 65 64 64 67 66 66 64 61 61 64 65 66 59 58 58 58 58 59 59
55 54 54 54 54 54 55 55 55 54 54 55 55 55 55 55 55 55 55 55 55 55 56 56 56 56 57 58 55 52 46 18 37 42 68 66 65 64 66 71 64 34 36 39 43 51 52 50 47 44 44 44 45 45 50 51 59 58 58 57 55 54 57 61 61 64 63 65 65 64 66 67 65 65 66 64 64 65 66 66 66 59 59 58 58 58 58 59
54 54 54 54 54 54 54 54 54 55 55 55 55 55 55 55 55 55 55 55 55 55 56 56 56 57 57 57 53 51 46 38 32 49 71 67 64 69 68 64 62 38 34 37 44 50 49 47 44 42 41 39 40 42 46 49 65 61 59 55 54 54 56 58 60 63 64 65 65 67 67 66 66 64 67 65 67 67 67 66 60 59 59 58 58 58 58 59
53 53 53 53 53 54 54 54 54 54 55 55 55 55 55 55 54 55 55 55 55 56 56 56 57 57 57 52 50 48 44 33 37 52 67 67 62 57 59 39 31 31 34 36 44 48 45 43 41 41 40 36 36 38 41 45 49 54 56 53 53 51 50 51 59 60 63 64 65 67 65 65 66 65 66 66 66 67 67 67 60 58 58 57 57 57 58 59
54 54 54 54 54 54 54 54 54 54 55 55 55 54 54 54 54 55 55 56 56 56 56 56 57 56 57 52 41 37 37 35 50 52 61 51 48 45 38 27 27 29 34 35 44 46 43 40 40 39 36 35 36 36 38 40 43 49 52 53 52 53 53 47 61 59 63 65 65 65 65 66 67 68 66 66 67 67 67 66 64 58 56 56 56 56 57 58
54 54 54 54 54 54 54 54 54 54 54 55 54 54 54 54 54 55 55 56 57 57 57 57 57 57 54 49 44 36 38 44 50 53 51 45 44 41 31 23 24 30 35 36 41 44 41 37 37 37 36 34 34 30 32 39 41 50 51 52 55 52 48 44 44 62 62 62 65 65 65 66 68 65 62 67 68 68 67 66 62 59 56 55 55 55 57 57
54 53 54 54 54 54 54 54 54 54 54 54 54 55 54 55 55 55 56 57 57 57 57 57 57 56 49 47 41 32 39 40 42 41 40 42 38 33 25 23 25 31 36 37 39 42 40 37 34 32 31 31 29 29 33 39 43 46 48 50 50 49 46 43 45 62 61 62 65 65 65 66 66 65 61 65 68 68 66 61 58 56 56 54 53 54 56 57
54 54 54 54 54 54 55 54 54 55 55 55 55 55 54 54 55 55 56 57 58 57 57 57 57 54 49 45 42 38 36 46 41 38 37 34 32 29 23 26 28 32 37 39 38 38 38 36 32 28 26 26 25 28 31 36 41 43 45 45 46 45 43 42 43 57 59 62 64 64 63 62 63 62 64 66 68 68 67 58 57 56 55 55 54 55 56 55
54 54 54 54 54 55 54 54 54 54 55 55 55 55 54 54 55 56 57 57 58 58 58 58 57 53 49 45 40 36 33 42 40 38 35 32 31 26 25 30 30 33 40 41 37 36 36 34 30 27 26 24 24 26 29 33 36 41 43 44 44 43 41 41 50 57 59 61 64 62 54 57 61 62 66 67 68 68 67 58 57 56 55 55 54 54 54 55
55 55 55 54 54 55 55 54 54 55 55 55 55 55 54 54 56 57 58 58 58 58 58 58 55 51 50 45 41 27 32 40 42 38 38 29 27 24 29 31 29 35 42 41 35 30 30 30 30 28 27 24 22 26 25 29 32 34 39 42 42 41 40 43 48 54 59 61 63 59 56 59 62 63 66 67 67 65 65 60 56 56 55 55 54 54 54 54
55 55 55 55 55 55 55 55 55 55 55 55 54 54 54 54 56 58 58 57 57 58 58 58 55 52 45 40 40 39 69 40 38 38 39 33 24 25 30 34 31 36 40 36 31 29 29 29 28 27 26 27 27 25 23 27 30 32 35 36 40 39 40 48 48 56 57 60 60 57 55 59 62 64 66 66 67 67 65 64 58 56 56 55 55 53 54 54
55 55 55 55 55 55 55 55 55 55 55 55 54 54 54 55 57 58 58 58 58 58 57 51 50 48 43 40 34 40 29 32 31 40 41 34 28 31 33 35 34 36 36 32 32 29 27 27 26 26 25 25 25 23 23 27 28 29 31 34 35 38 39 45 54 49 58 57 58 59 59 59 60 64 65 66 68 67 66 66 67 59 59 56 55 54 54 54
55 55 55 55 55 55 55 54 55 55 55 54 54 54 54 55 58 59 59 59 57 56 51 47 47 46 33 37 40 28 29 27 36 40 37 38 33 30 30 30 33 34 35 32 30 27 26 28 27 24 21 21 22 22 23 26 27 26 28 27 30 36 38 38 45 48 54 53 58 58 58 59 61 64 66 68 68 68 67 67 65 67 61 57 56 54 54 54
55 55 55 55 55 55 55 55 55 55 54 53 53 53 52 55 58 58 57 57 49 48 47 48 47 44 39 33 31 33 27 29 37 38 35 38 32 33 31 31 34 34 33 29 28 27 27 25 22 16 15 18 21 21 22 24 25 25 26 26 26 30 37 40 44 52 48 56 55 56 55 56 61 63 65 67 68 67 67 66 67 63 64 58 56 55 55 54
55 55 55 55 55 55 55 55 55 54 54 54 54 56 56 57 54 53 53 46 46 44 43 40 41 33 24 26 27 31 25 35 35 34 35 33 34 33 31 31 31 31 27 27 27 27 25 21 18 16 11 12 15 19 19 22 24 23 24 24 24 27 33 34 49 54 49 50 53 55 53 57 59 62 64 64 67 67 67 68 66 64 65 62 58 56 57 56
55 55 55 55 55 55 55 55 55 54 53 52 52 53 51 48 48 46 48 48 44 39 37 32 31 23 27 23 25 26 28 37 33 29 36 35 35 32 31 29 28 28 25 23 25 25 22 17 14 12 10 8 9 15 19 19 21 22 21 22 22 24 28 33 36 43 48 51 50 54 53 57 58 62 63 64 66 67 66 66 66 67 66 66 64 58 57 57
55 55 55 55 55 55 55 55 54 53 53 51 50 49 47 32 27 27 30 43 44 40 33 29 27 22 25 26 36 35 35 34 34 28 34 37 36 31 30 29 27 24 23 22 21 23 21 19 14 12 8 7 9 11 16 19 19 19 18 16 20 23 26 34 37 45 45 51 50 51 50 50 54 60 62 63 65 66 66 66 65 64 64 65 64 62 59 57
55 55 55 55 55 54 55 54 54 53 52 52 50 43 42 31 29 29 30 20 25 35 28 23 23 21 22 24 29 33 32 32 31 31 34 31 33 25 29 27 26 23 23 21 20 20 19 18 16 13 12 8 10 11 11 15 18 19 18 21 22 24 27 33 41 43 44 46 48 49 50 49 55 57 61 62 62 63 63 63 63 64 65 66 66 66 61 57
55 55 55 55 54 54 54 53 53 51 51 50 44 39 38 32 30 33 29 24 20 21 27 23 16 17 18 25 30 29 25 27 26 31 34 28 33 26 29 25 26 23 21 20 18 19 17 16 17 14 14 14 10 9 8 9 14 17 20 23 24 28 28 32 40 40 44 41 47 50 48 49 53 56 58 61 62 63 65 65 68 68 68 65 66 64 63 57
55 55 55 54 54 54 54 52 51 51 49 47 40 40 33 31 30 31 29 26 23 24 21 19 15 11 13 19 27 27 24 25 25 30 34 28 31 28 31 27 25 23 20 19 19 19 17 16 16 15 14 15 12 8 7 5 10 20 25 26 29 29 29 33 31 31 37 39 48 48 45 45 50 52 57 58 62 62 65 67 67 69 67 66 67 66 63 59
55 55 55 54 53 53 52 50 46 44 43 40 36 33 29 35 36 35 28 29 23 18 21 15 12 9 7 15 23 22 21 20 23 28 33 27 30 29 30 31 26 23 20 20 18 19 20 19 17 15 14 13 11 9 13 14 13 18 24 27 28 29 31 30 32 29 30 35 35 50 47 43 49 49 50 53 61 61 63 65 66 68 68 66 66 68 66 63
55 55 55 54 54 53 50 45 41 36 37 33 32 30 33 33 38 33 31 26 22 17 15 9 7 8 16 12 22 19 18 15 18 23 32 28 32 30 30 29 27 24 21 20 19 19 19 21 19 16 14 12 10 10 14 16 13 16 22 29 30 27 29 31 31 30 31 32 33 34 40 43 47 50 50 51 56 61 63 63 65 66 67 66 64 65 63 60
55 55 54 54 53 51 49 38 39 35 33 32 31 32 31 32 48 32 31 26 19 17 14 6 -1 15 15 18 18 17 14 11 16 22 32 31 27 32 28 26 27 26 25 21 22 19 20 20 19 17 14 11 10 10 10 14 13 18 27 28 29 29 27 26 28 29 30 29 30 33 32 42 49 48 48 46 51 60 61 61 61 65 65 64 64 64 65 62
55 54 53 53 52 52 49 49 45 40 31 32 33 32 33 42 41 36 33 22 12 16 8 9 5 18 12 14 15 14 14 15 12 26 31 28 27 29 29 26 24 24 26 21 18 20 20 18 19 16 15 11 8 10 14 25 22 24 26 20 24 24 22 25 29 29 29 28 29 28 30 32 39 48 45 46 51 55 58 58 60 63 63 63 63 64 65 67
54 54 53 53 52 51 52 47 43 37 31 31 31 31 33 42 34 29 26 18 12 9 15 10 15 17 14 14 12 14 10 14 10 29 28 27 25 27 25 24 23 23 21 24 21 22 21 18 18 18 16 12 13 18 21 26 26 24 22 20 17 18 20 29 30 29 30 30 30 30 27 30 49 45 46 46 53 53 58 58 57 59 62 63 63 65 66 66
54 54 53 52 50 51 49 49 44 40 37 35 36 37 34 33 32 25 17 15 12 9 11 10 8 12 11 10 12 13 10 11 10 20 21 22 25 28 26 23 19 18 18 19 23 23 14 23 24 19 19 19 22 22 20 20 24 24 19 23 22 19 21 27 31 32 31 31 31 28 26 26 42 43 45 46 52 54 56 60 61 60 60 62 64 65 66 67
53 52 52 51 47 42 39 34 41 39 40 42 38 37 38 37 32 37 14 11 10 9 9 11 7 12 9 8 10 11 9 8 12 16 16 20 21 25 22 19 20 18 19 18 22 22 21 16 15 23 28 25 22 20 19 19 24 22 19 23 24 27 27 27 26 31 30 28 30 27 26 25 27 42 48 50 51 52 54 56 57 59 59 61 62 62 65 67
51 51 51 52 50 50 41 34 36 39 44 41 37 37 33 31 32 22 18 17 11 3 1 2 7 9 9 7 5 6 6 10 11 13 13 13 14 16 17 17 19 19 16 17 17 19 20 20 15 20 32 26 23 18 17 19 24 23 22 22 23 27 27 26 28 26 26 27 29 26 26 25 34 48 48 50 51 53 53 54 54 57 60 60 60 61 62 65
51 50 50 51 52 47 42 43 38 43 44 40 38 35 42 36 30 16 11 5 5 7 4 6 5 8 8 7 6 -0 2 3 11 12 12 10 10 9 11 15 17 19 18 18 18 19 21 23 21 22 24 26 23 16 15 16 22 24 24 25 24 23 25 26 26 25 25 24 25 25 25 29 46 51 53 51 53 54 54 56 56 57 59 62 62 61 61 63
50 50 51 51 49 44 41 47 46 43 37 40 39 32 31 28 25 20 10 8 8 7 7 5 6 7 8 5 6 4 1 2 9 9 10 10 8 9 7 9 12 15 15 19 17 19 19 19 18 19 18 25 24 23 17 19 23 25 26 24 24 26 23 23 22 22 22 24 22 25 24 43 41 48 50 54 52 52 52 52 56 57 57 59 60 61 61 62
50 50 52 51 50 48 46 46 47 42 39 36 34 31 26 21 29 17 18 10 3 5 4 7 6 6 5 7 8 11 9 8 7 9 8 10 8 9 7 5 11 14 18 15 19 20 17 17 20 19 20 23 24 25 26 20 21 23 26 26 21 22 26 19 21 21 21 20 21 24 31 41 47 50 51 50 50 53 52 52 53 59 60 61 62 61 61 63
50 49 50 44 41 44 47 36 39 42 38 33 32 41 26 25 17 12 12 12 9 9 4 6 5 7 5 4 6 8 10 10 8 10 10 10 13 15 15 13 11 15 20 13 22 21 22 20 17 17 20 21 25 26 25 24 23 24 23 23 20 22 21 24 22 18 20 20 20 26 44 46 48 48 49 49 49 50 52 53 54 58 58 59 60 61 62 65
39 37 40 44 39 24 28 29 34 39 40 31 28 24 23 16 13 14 19 11 11 14 1 5 4 6 8 5 11 12 10 12 12 10 19 15 14 18 16 17 20 21 22 22 21 22 21 19 17 18 17 18 19 23 20 26 26 18 20 20 23 22 21 25 17 24 17 15 19 33 41 42 45 45 54 49 49 50 51 52 54 55 59 60 60 61 62 63
45 36 35 28 27 27 27 32 35 37 32 30 26 33 18 17 14 14 13 13 11 10 12 13 12 6 5 7 9 12 12 10 11 10 15 14 18 19 17 18 18 19 20 22 21 21 21 18 16 18 18 16 18 20 22 21 22 18 18 21 19 21 22 26 23 19 16 13 16 25 39 40 45 45 48 50 50 51 53 52 53 53 53 55 58 60 63 63
46 38 34 33 29 23 24 33 32 35 35 38 26 35 12 14 15 13 15 15 12 15 17 20 21 13 18 16 9 6 9 8 11 11 13 16 15 17 17 19 19 20 21 21 20 21 21 18 19 17 14 14 16 17 17 12 17 18 19 17 19 19 19 22 21 24 25 18 13 15 37 41 43 49 52 51 55 51 51 53 52 53 53 55 56 58 62 63
37 36 33 32 28 26 36 29 26 28 27 27 24 35 16 17 14 15 15 16 16 18 23 25 23 23 16 18 11 10 10 8 11 13 12 21 15 20 18 18 17 19 19 20 20 21 22 27 21 16 15 14 13 15 15 17 16 16 16 17 18 18 19 19 18 19 22 24 17 17 42 43 44 50 47 49 50 52 52 52 53 53 55 55 56 58 59 64
42 35 27 29 25 29 25 23 24 25 27 37 27 19 18 19 16 16 16 13 15 16 13 16 15 14 17 16 16 17 13 13 14 20 16 19 18 17 19 18 17 18 19 19 19 19 23 22 20 17 14 12 13 14 13 12 14 15 16 17 17 17 19 17 16 14 18 22 25 19 41 45 45 47 47 46 47 49 51 51 52 53 56 57 57 58 59 60
37 37 19 22 25 21 23 23 21 15 14 21 19 16 21 28 18 16 16 15 14 16 14 14 16 17 18 18 19 16 16 16 18 18 16 17 19 19 17 17 18 19 18 18 18 25 25 23 23 22 14 12 12 14 13 13 15 14 11 13 16 16 17 19 21 20 18 18 19 38 41 44 47 47 46 46 47 49 49 51 51 52 55 56 56 57 59 60
41 20 23 19 18 24 25 25 27 21 15 13 13 17 19 19 17 14 16 14 18 15 15 16 16 16 17 19 19 19 20 21 21 20 20 18 18 18 17 16 17 19 22 22 26 26 37 21 21 22 20 16 14 12 15 17 16 15 14 12 13 12 12 14 18 23 21 21 28 36 43 44 45 47 46 46 48 47 49 50 50 51 52 56 56 57 58 60
37 15 17 15 24 27 24 23 19 16 15 16 12 10 14 18 19 18 17 17 18 18 19 18 17 17 19 19 19 20 22 21 22 23 20 20 19 18 16 15 15 16 20 22 24 24 23 26 25 23 22 20 15 16 12 13 14 14 11 12 12 14 16 18 20 30 26 22 24 38 41 44 46 48 46 45 46 44 48 49 50 50 51 53 55 57 57 58
40 28 21 16 22 19 15 14 19 19 20 20 18 16 14 14 15 19 18 18 18 19 18 18 18 17 18 18 19 18 20 18 22 22 22 22 20 17 15 16 14 13 15 20 41 26 23 25 28 21 22 18 16 15 17 16 14 14 14 12 15 14 18 21 20 33 23 32 36 38 43 46 47 47 46 47 45 47 46 47 48 51 53 53 53 55 56 56
39 30 20 15 16 17 19 14 14 16 21 22 21 17 16 14 11 13 14 16 18 19 19 19 17 16 18 18 19 20 21 20 21 26 25 21 20 18 13 14 14 10 30 41 44 21 22 27 30 32 30 28 27 31 23 23 14 12 8 11 13 14 15 19 24 26 24 29 36 44 45 46 46 44 44 43 45 45 45 46 47 49 51 52 54 54 55 56
39 22 19 27 27 16 15 15 15 11 17 15 23 14 20 13 14 10 8 15 18 20 19 20 19 19 22 19 20 20 20 21 22 24 23 20 24 19 13 12 13 19 41 37 20 14 29 26 26 34 32 28 19 22 20 17 15 12 14 12 12 15 18 20 20 23 37 27 39 45 47 45 45 47 45 45 45 46 45 47 47 48 49 50 51 53 55 53
25 20 23 30 25 19 21 18 18 17 16 17 17 16 17 19 20 20 14 13 16 13 20 24 21 22 22 24 22 23 24 27 25 25 26 25 22 18 16 13 12 21 27 14 14 20 28 23 20 23 25 26 20 17 16 15 16 17 15 10 12 16 18 19 22 21 26 28 38 47 46 45 45 46 44 45 46 45 44 45 45 48 48 50 51 51 51 51
28 17 12 9 19 14 15 9 16 16 15 21 23 22 18 16 17 16 20 20 19 21 23 25 22 21 21 24 27 37 32 27 27 32 30 26 24 20 18 19 19 14 13 18 19 27 21 19 23 17 16 18 18 17 17 15 15 16 9 10 14 15 15 16 18 19 23 40 45 47 50 47 51 46 45 45 45 45 45 47 48 47 46 48 49 50 50 51
33 35 29 21 23 23 22 21 19 21 24 31 29 17 21 20 18 20 21 25 24 23 21 23 22 25 25 27 33 32 30 30 37 32 31 28 25 25 27 27 25 23 19 19 17 27 18 26 28 20 19 17 16 16 16 15 14 16 15 14 14 13 14 17 19 20 27 40 39 43 48 50 52 53 46 46 47 45 45 46 47 47 46 46 48 49 50 51
40 34 42 38 30 16 26 24 27 28 30 29 26 20 21 14 19 17 17 22 23 24 22 19 20 21 24 27 28 27 26 28 27 28 29 24 26 28 30 30 24 25 27 20 19 24 16 19 22 19 16 13 13 13 13 13 12 13 15 15 14 13 14 15 19 20 23 33 38 46 45 45 49 49 48 47 48 48 47 46 47 49 45 47 47 47 49 50
48 49 45 35 32 26 22 18 20 27 26 26 27 26 25 21 20 20 23 19 22 25 23 22 24 24 23 29 28 25 24 22 21 22 22 19 21 19 21 22 20 27 30 26 25 20 22 22 23 17 12 12 12 11 8 9 10 11 14 11 13 14 15 14 17 19 30 26 30 41 45 45 48 47 46 47 46 47 47 47 47 49 49 46 46 46 48 49